Theta_e
321 321 324 327 328 328 327 324 325 330 332 337 338 341 343 330 331 334 333 336 341 338 331 321 317 329 331 329 330 330 331 330 330 334 333 328 325 320 324 326 326 326 326
318 319 319 320 323 323 321 321 322 323 328 330 332 337 338 338 335 330 335 335 342 338 338 331 326 318 328 331 330 331 331 331 331 331 332 330 328 316 319 323 325 325 325
316 317 317 318 319 320 320 322 319 317 320 323 328 328 333 337 337 332 338 335 339 340 335 332 324 328 323 331 331 331 331 331 331 329 331 330 328 318 315 318 324 325 324
314 315 315 316 316 317 318 319 319 320 317 318 323 324 325 327 329 335 332 327 327 338 335 332 330 326 326 328 330 331 331 331 331 331 330 330 328 319 313 314 315 320 326
314 314 314 313 314 315 315 316 317 318 317 317 319 321 321 326 327 328 332 333 328 326 340 334 333 335 334 330 324 329 322 329 330 331 330 328 329 327 323 322 314 314 318
314 314 314 314 313 313 312 312 313 315 317 317 316 315 319 321 325 327 326 327 326 334 334 330 326 335 332 333 329 322 322 321 322 327 328 326 329 328 328 324 322 318 313
312 312 312 313 313 313 313 312 311 311 313 315 317 317 313 319 320 322 325 325 324 327 331 332 327 331 333 332 330 326 326 323 322 322 323 325 328 328 328 328 324 322 316
311 311 312 311 312 313 313 314 313 312 312 311 312 315 317 316 317 319 319 320 321 322 323 327 331 333 333 333 331 327 325 322 323 322 321 323 327 328 328 328 326 321 320
310 310 310 310 310 310 310 310 311 313 313 312 311 310 310 314 316 317 317 319 319 319 320 322 326 329 331 331 330 328 326 323 322 321 321 318 321 325 327 324 322 322 319
308 307 307 308 308 308 308 308 308 309 309 310 311 311 310 310 311 313 316 315 317 317 322 323 323 325 327 329 329 328 326 325 325 324 322 321 325 324 326 325 319 322 320
304 304 304 304 305 305 305 306 306 307 307 307 308 309 309 308 309 311 314 317 318 318 318 320 322 323 324 327 327 329 328 327 327 325 324 323 320 324 325 325 319 322 323
301 301 300 300 300 301 301 301 301 302 304 305 306 308 307 306 308 308 309 312 315 316 314 316 320 321 324 323 325 330 329 328 326 325 324 323 323 320 320 321 318 318 323
299 299 298 298 298 298 298 298 298 299 300 301 303 304 305 306 307 308 312 311 310 312 315 314 317 318 322 322 323 324 327 327 325 325 324 323 322 319 320 321 323 320 318
298 297 297 297 297 297 297 297 297 298 298 299 300 302 303 304 305 308 309 312 314 314 314 314 315 317 319 320 320 321 323 325 328 325 324 324 323 321 323 325 325 320 316
297 296 296 296 296 296 296 296 296 297 297 297 298 300 302 302 304 307 306 307 311 314 315 314 313 317 317 319 321 322 323 323 325 324 323 322 322 326 325 326 325 324 321
295 295 294 294 294 294 294 295 295 295 296 296 296 297 298 301 302 305 305 305 307 311 313 314 315 316 318 318 320 320 320 321 323 324 323 323 323 327 326 326 325 324 321
294 293 293 293 293 293 293 294 294 295 295 296 296 297 297 297 300 302 303 304 304 307 309 311 311 313 314 317 318 319 319 320 322 323 324 323 323 326 325 325 325 323 321
293 293 292 292 292 292 292 292 293 293 294 295 296 297 298 298 298 300 301 301 302 303 305 308 310 310 311 312 313 316 318 320 319 319 321 319 322 325 325 324 324 323 322
295 294 293 292 292 292 292 292 292 293 294 294 295 296 296 297 298 299 300 300 300 302 304 304 308 309 309 310 312 313 314 315 317 319 319 320 317 319 324 324 323 322 321
296 295 294 294 294 293 293 293 293 293 293 294 294 295 296 297 297 299 299 299 300 300 301 303 305 307 308 309 310 311 314 314 315 315 316 317 320 321 322 324 324 323 322
296 296 295 295 295 294 293 293 292 292 293 293 294 295 295 296 297 298 299 299 300 300 301 302 304 306 309 308 309 311 312 314 314 313 313 314 317 317 319 322 322 324 322
297 297 296 295 295 295 294 294 293 293 293 293 294 295 295 295 296 296 297 300 300 300 301 302 303 305 306 307 309 309 311 313 314 315 314 314 314 315 315 316 318 320 323
297 296 296 296 295 295 294 294 294 293 292 292 293 294 295 296 296 296 296 297 298 300 301 301 303 303 304 306 307 308 310 311 313 313 314 315 314 314 317 317 315 318 319
296 296 296 296 296 295 295 294 293 293 292 292 292 293 293 294 295 296 296 297 298 298 300 301 302 303 303 303 304 307 309 310 311 314 314 314 314 314 316 316 317 317 318
295 296 295 295 295 295 294 292 291 291 291 291 291 292 292 293 295 296 296 296 297 299 299 301 301 301 302 302 303 304 306 309 310 312 313 314 314 315 315 316 316 317 317
296 296 295 295 295 293 292 291 289 289 289 290 290 291 291 292 293 295 296 297 297 298 298 299 300 301 302 302 302 303 304 307 309 310 311 312 312 313 313 314 315 317 318
Wind_Speed
9 9 8 9 10 14 18 19 20 22 26 25 26 31 25 52 46 35 37 35 35 34 30 31 29 30 17 19 18 15 12 10 5 7 6 3 6 7 7 7 6 7 5
10 10 11 12 11 16 19 23 24 24 21 22 27 29 26 23 32 41 45 37 36 38 34 29 29 30 25 20 19 18 15 13 11 8 8 8 8 7 7 6 5 6 7
11 12 13 14 15 17 18 18 25 28 27 24 21 25 25 22 16 19 54 26 31 36 38 36 35 32 32 26 21 18 16 15 14 11 9 10 7 8 8 7 7 6 6
14 15 16 17 17 18 19 20 20 26 30 29 25 24 24 26 24 16 21 35 35 36 46 43 40 36 34 37 30 22 16 10 8 7 10 11 8 4 8 8 8 7 8
17 17 19 20 20 20 20 22 22 23 26 29 29 27 23 20 22 20 12 20 33 40 36 44 39 42 37 36 36 31 19 15 9 10 12 15 15 11 7 9 8 8 9
21 22 22 23 23 23 22 23 23 24 24 27 33 33 27 21 18 19 19 20 13 7 36 25 46 45 36 35 34 26 21 27 13 17 14 16 21 14 10 8 9 10 10
23 24 25 25 26 26 26 25 25 27 27 25 24 30 36 27 24 18 19 22 18 10 15 20 35 34 37 37 34 24 31 32 34 27 22 15 9 12 10 10 12 13 13
25 25 25 26 24 21 18 20 26 28 28 31 33 29 27 31 30 26 21 25 24 16 15 15 17 19 25 34 40 37 37 36 32 28 28 23 13 8 12 11 12 14 14
25 27 28 29 28 27 27 26 24 20 23 28 30 34 36 35 28 31 28 25 23 22 19 16 19 23 27 26 29 35 31 39 36 34 35 27 26 20 17 17 15 14 14
24 28 30 27 28 27 26 32 35 35 31 27 26 28 31 34 33 31 31 33 29 26 20 20 21 24 31 33 35 36 37 39 40 44 45 37 27 23 22 21 16 12 6
27 27 27 29 32 35 34 35 34 32 32 32 36 37 39 39 39 38 31 28 29 29 26 25 24 25 28 35 34 37 43 38 38 51 44 46 38 28 27 26 20 14 6
29 29 30 29 30 30 31 34 36 39 40 38 34 32 37 40 34 33 39 35 33 33 35 30 26 25 23 28 36 38 33 42 44 47 48 44 43 38 36 30 24 21 20
31 32 33 32 30 31 31 33 36 34 34 35 33 37 31 27 29 32 32 36 35 41 37 32 31 30 28 23 28 30 34 41 45 44 45 42 39 34 35 26 19 28 25
33 33 33 34 35 35 34 32 32 32 32 32 33 30 30 31 30 31 26 28 36 35 38 35 31 31 28 33 34 29 32 40 47 46 42 41 36 30 32 30 29 24 21
33 35 36 33 33 33 34 33 32 32 33 32 32 31 27 31 33 20 11 13 22 25 29 32 31 24 28 29 29 28 25 41 49 48 45 45 39 37 37 36 32 26 15
36 35 33 34 34 34 33 33 32 32 31 33 32 35 38 39 40 37 22 16 13 14 22 22 25 27 23 24 28 24 22 31 46 45 51 44 43 40 41 43 35 29 19
33 33 35 34 34 32 31 32 35 31 29 29 29 28 28 38 40 44 40 29 17 9 15 12 20 21 20 26 17 25 26 29 43 33 44 38 23 41 47 44 40 30 24
30 31 31 30 30 29 29 30 30 31 32 31 28 27 27 25 31 38 41 38 36 27 18 21 16 19 21 21 22 23 23 31 31 38 44 27 27 22 37 43 38 31 25
31 32 30 29 29 28 29 29 27 26 28 29 27 28 25 29 23 27 34 36 38 41 34 24 22 20 21 19 23 19 22 28 26 34 33 37 39 34 27 29 35 33 27
29 28 26 26 27 27 27 27 27 25 25 27 27 26 24 22 27 22 28 35 35 34 32 33 28 26 23 21 23 29 27 24 31 29 30 29 33 33 41 32 31 35 30
29 28 26 26 27 27 26 26 27 27 27 26 25 23 22 23 26 28 26 27 29 32 31 34 32 30 24 25 25 25 32 28 25 24 26 33 35 31 26 32 25 29 34
28 28 27 27 27 26 25 24 24 25 26 27 26 24 22 25 27 30 31 27 27 28 28 30 35 34 32 29 22 30 26 27 28 26 24 23 23 26 26 28 32 19 26
30 30 29 30 30 28 26 25 26 25 25 25 24 25 23 22 24 26 27 29 34 30 27 29 31 33 43 42 35 26 26 27 29 32 27 22 24 24 29 30 30 26 24
31 33 32 31 31 32 30 29 28 27 25 25 24 23 22 23 23 22 27 26 25 32 31 34 31 30 32 37 46 41 31 27 21 27 25 28 33 36 27 33 29 30 28
30 33 35 34 34 34 35 32 31 28 26 24 24 22 21 22 21 20 20 26 30 27 30 27 31 36 36 37 35 45 37 34 25 24 31 25 21 28 29 27 28 27 31
31 33 36 35 35 35 35 35 31 28 26 24 23 21 21 21 20 21 18 19 24 27 34 36 33 30 31 34 35 36 41 39 35 29 32 31 27 24 24 26 28 26 26
Wind_Direction
1 359 342 333 335 317 312 308 304 302 313 298 296 270 284 217 220 232 228 219 221 221 216 209 204 191 184 208 199 196 198 200 184 202 246 316 326 315 308 302 294 306 311
346 342 339 323 320 324 306 303 302 301 311 335 316 294 278 246 244 262 245 219 224 219 218 209 210 204 193 200 201 196 197 202 197 215 253 277 294 292 288 292 301 295 307
328 326 322 317 316 311 307 314 313 306 303 307 321 315 302 282 296 254 237 240 236 232 223 215 212 208 203 194 195 197 197 204 207 217 238 262 287 286 283 281 281 284 295
317 314 308 304 303 308 306 306 301 302 306 307 308 309 314 327 323 319 206 254 247 263 233 226 210 215 211 203 198 191 190 197 222 213 258 262 264 277 270 285 285 284 267
313 308 304 302 301 294 295 300 298 298 302 304 306 308 303 315 323 331 307 259 241 248 255 224 212 211 210 208 205 197 198 199 204 233 239 248 252 255 262 299 294 293 282
307 303 300 300 297 297 295 293 293 294 297 295 298 299 307 302 303 308 310 286 321 302 229 238 231 227 211 212 210 211 216 244 228 243 247 261 245 250 253 289 300 312 285
308 303 300 298 297 295 291 289 288 284 282 287 295 294 298 305 307 294 290 292 294 269 270 260 227 229 219 211 202 216 242 233 230 223 239 259 261 245 244 253 289 301 291
305 305 303 299 299 290 296 294 285 284 281 278 278 281 289 290 297 303 301 290 290 283 268 275 269 267 250 234 232 222 220 213 218 234 231 238 253 224 224 257 274 282 286
308 305 301 300 302 302 294 302 287 283 282 286 283 284 278 279 288 297 295 294 290 284 277 263 245 248 233 227 220 214 222 212 214 229 235 236 235 244 247 251 257 263 272
304 299 288 287 290 295 296 291 286 282 281 278 283 281 283 279 282 286 288 285 286 285 265 265 253 245 249 244 225 225 228 218 223 235 234 234 223 228 239 253 257 262 279
293 293 296 291 283 280 285 282 279 278 282 284 281 273 270 274 271 274 273 281 278 277 275 260 255 243 241 242 238 232 229 233 231 231 233 230 221 228 231 238 234 242 239
302 303 302 296 294 291 290 286 284 279 274 275 276 277 278 271 277 277 269 272 269 275 277 269 258 255 239 238 241 238 237 236 234 233 231 225 221 223 233 237 239 225 221
310 309 307 304 301 297 296 290 289 285 281 275 276 270 271 265 274 278 277 264 266 261 267 274 260 250 245 244 234 240 235 234 226 226 222 217 215 220 228 231 220 211 219
312 310 308 304 303 301 298 294 289 286 284 278 277 272 271 265 264 271 280 272 255 254 259 263 261 251 252 249 252 245 235 234 221 216 210 208 212 216 216 206 208 199 208
313 310 308 305 302 300 296 292 289 283 280 279 273 268 266 264 255 257 279 284 259 246 251 254 252 242 246 247 247 246 242 223 220 213 211 208 209 208 206 206 211 203 212
312 310 308 306 305 303 299 294 286 284 282 274 274 269 267 256 250 250 262 269 285 250 268 243 234 231 232 236 239 242 244 222 219 211 208 209 210 209 210 204 204 205 208
317 316 312 310 308 306 302 298 296 292 285 280 276 269 268 264 255 254 256 259 264 243 228 244 241 235 242 227 226 232 232 234 222 205 192 197 236 206 197 193 199 204 207
323 321 318 315 312 307 303 299 294 292 291 285 277 275 270 271 263 253 253 260 258 249 238 222 235 249 243 246 246 237 227 226 223 222 215 218 238 192 185 192 199 201 203
327 328 325 320 317 315 310 307 303 295 290 289 285 272 271 264 267 257 249 251 254 251 240 234 219 240 246 242 240 243 241 228 219 218 219 213 237 247 206 193 201 205 210
335 335 333 328 326 325 323 317 312 302 295 289 285 280 272 268 261 255 250 248 248 246 244 239 235 229 235 247 245 235 242 226 223 223 224 219 223 224 224 211 204 207 207
342 338 337 337 334 330 326 321 316 309 303 296 287 280 268 262 258 254 251 244 240 240 236 232 230 229 232 239 238 237 225 229 236 229 221 225 229 240 220 211 217 210 205
346 348 350 346 341 335 331 327 321 314 307 302 297 287 272 259 256 253 248 238 243 240 232 230 227 224 224 225 230 230 236 234 229 226 216 224 223 216 226 224 222 223 202
356 351 348 348 347 341 332 327 324 320 315 307 298 292 286 271 257 255 253 246 238 238 235 231 227 227 223 218 213 228 221 230 225 218 219 217 208 210 211 213 213 208 211
357 355 351 347 347 348 343 332 327 321 314 309 303 296 285 276 272 266 247 242 240 234 233 228 222 223 228 228 220 223 222 215 216 211 210 215 217 215 212 209 213 220 214
356 356 353 350 346 344 341 337 330 322 315 307 304 296 287 283 266 266 255 239 230 224 227 233 230 229 229 230 230 223 227 209 208 207 200 202 191 201 211 211 212 219 213
1 360 357 352 348 346 344 341 336 329 323 316 307 297 288 281 271 254 255 247 238 234 227 223 227 231 228 228 229 224 222 219 212 208 207 211 207 199 200 201 215 209 208